OK,38,82,1030,38,2014-10-01T01:40:00,0,28072800,179418
OK,98,32,1030,98,2014-10-01T01:45:00,1,28073247,179418
OK,98,32,1030,98,2014-10-01T01:50:00,0,28073695,179418
OK,98,32,1030,98,2014-10-01T01:55:00,0,28074013,179418
OK,96,32,1030,96,2014-10-01T02:05:00,1,28074902,179418
OK,54,58,1030,54,2014-10-01T02:10:00,1,28075351,179418
OK,54,58,1030,54,2014-10-01T02:15:00,0,28075800,179418
OK,69,45,1030,69,2014-10-01T02:20:00,1,28076183,179418
OK,69,45,1030,69,2014-10-01T02:25:00,1,28076632,179418
OK,69,45,1030,69,2014-10-01T02:30:00,0,28077081,179418
OK,88,35,1030,88,2014-10-01T02:35:00,1,28077530,179418
OK,88,35,1030,88,2014-10-01T02:40:00,0,28077933,179418
OK,88,35,1030,88,2014-10-01T02:45:00,0,28078382,179418
OK,61,51,1030,61,2014-10-01T02:50:00,1,28078827,179418
OK,61,51,1030,61,2014-10-01T02:55:00,1,28079275,179418
OK,61,51,1030,61,2014-10-01T03:00:00,0,28079718,179418
OK,64,49,1030,64,2014-10-01T03:05:00,1,28080167,179418
OK,64,49,1030,64,2014-10-01T03:10:00,0,28080501,179418
OK,64,49,1030,64,2014-10-01T03:15:00,0,28080950,179418
OK,64,49,1030,64,2014-10-01T03:20:00,0,28081399,179418
OK,64,49,1030,64,2014-10-01T03:25:00,0,28081846,179418
OK,64,49,1030,64,2014-10-01T03:30:00,0,28082295,179418
OK,62,50,1030,62,2014-10-01T03:35:00,1,28082728,179418
OK,68,46,1030,68,2014-10-01T03:40:00,2,28083160,179418
OK,62,50,1030,62,2014-10-01T03:45:00,3,28083609,179418
OK,62,50,1030,62,2014-10-01T03:50:00,3,28084058,179418
OK,79,39,1030,79,2014-10-01T03:55:00,3,28084499,179418
OK,79,39,1030,79,2014-10-01T04:00:00,5,28084924,179418
OK,59,53,1030,59,2014-10-01T04:05:00,2,28085373,179418
OK,79,39,1030,79,2014-10-01T04:10:00,3,28085818,179418
OK,70,44,1030,70,2014-10-01T04:15:00,2,28086267,179418
OK,59,53,1030,59,2014-10-01T04:20:00,2,28086709,179418
OK,64,49,1030,64,2014-10-01T04:25:00,2,28087158,179418
OK,76,41,1030,76,2014-10-01T04:30:00,4,28087603,179418
OK,91,34,1030,91,2014-10-01T04:35:00,4,28088052,179418
OK,108,29,1030,108,2014-10-01T04:40:00,7,28088476,179418
OK,108,29,1030,108,2014-10-01T04:45:00,9,28088925,179418
OK,113,27,1030,113,2014-10-01T04:50:00,16,28089355,179418
OK,108,29,1030,108,2014-10-01T05:00:00,15,28090253,179418
OK,107,29,1030,107,2014-10-01T05:05:00,17,28090597,179418
OK,107,29,1030,107,2014-10-01T05:10:00,14,28091046,179418
OK,109,28,1030,109,2014-10-01T05:15:00,16,28091495,179418
OK,105,29,1030,105,2014-10-01T05:20:00,18,28091912,179418
OK,103,30,1030,103,2014-10-01T05:25:00,17,28092361,179418
OK,94,33,1030,94,2014-10-01T05:30:00,15,28092805,179418
OK,111,28,1030,111,2014-10-01T05:35:00,11,28093246,179418
OK,110,28,1030,110,2014-10-01T05:40:00,14,28093677,179418
OK,107,29,1030,107,2014-10-01T05:45:00,22,28094126,179418
OK,115,27,1030,115,2014-10-01T05:50:00,15,28094537,179418
OK,116,27,1030,116,2014-10-01T05:55:00,12,28094982,179418
OK,111,28,1030,111,2014-10-01T06:00:00,10,28095429,179418
OK,110,28,1030,110,2014-10-01T06:05:00,14,28095878,179418
OK,97,32,1030,97,2014-10-01T06:10:00,15,28096291,179418
OK,107,29,1030,107,2014-10-01T06:15:00,16,28096740,179418
OK,110,28,1030,110,2014-10-01T06:20:00,13,28097174,179418
OK,101,31,1030,101,2014-10-01T06:25:00,16,28097623,179418
OK,56,56,1030,56,2014-10-01T06:30:00,13,28098072,179418
OK,106,29,1030,106,2014-10-01T06:35:00,6,28098509,179418
OK,104,30,1030,104,2014-10-01T06:40:00,7,28098953,179418
OK,99,31,1030,99,2014-10-01T06:45:00,12,28099401,179418
OK,109,28,1030,109,2014-10-01T06:50:00,13,28099744,179418
OK,106,29,1030,106,2014-10-01T06:55:00,13,28100193,179418
OK,105,29,1030,105,2014-10-01T07:00:00,12,28100500,179418
OK,113,27,1030,113,2014-10-01T07:10:00,6,28101320,179418
OK,109,28,1030,109,2014-10-01T07:20:00,14,28102205,179418
OK,104,30,1030,104,2014-10-01T07:25:00,9,28102654,179418
OK,106,29,1030,106,2014-10-01T07:30:00,9,28103082,179418
OK,114,27,1030,114,2014-10-01T07:35:00,12,28103528,179418
OK,119,26,1030,119,2014-10-01T07:40:00,13,28103973,179418
OK,100,31,1030,100,2014-10-01T07:45:00,8,28104418,179418
OK,99,31,1030,99,2014-10-01T07:50:00,6,28104859,179418
OK,82,38,1030,82,2014-10-01T07:55:00,7,28105304,179418
OK,82,38,1030,82,2014-10-01T08:00:00,13,28105744,179418
OK,72,43,1030,72,2014-10-01T08:05:00,11,28106193,179418
OK,100,31,1030,100,2014-10-01T08:10:00,10,28106630,179418
OK,106,29,1030,106,2014-10-01T08:15:00,22,28107036,179418
OK,105,29,1030,105,2014-10-01T08:20:00,13,28107468,179418
OK,118,26,1030,118,2014-10-01T08:25:00,1,28107917,179418
OK,113,27,1030,113,2014-10-01T08:30:00,11,28108356,179418
OK,90,34,1030,90,2014-10-01T08:35:00,10,28108805,179418
OK,47,66,1030,47,2014-10-01T08:40:00,9,28109233,179418
OK,77,40,1030,77,2014-10-01T08:45:00,10,28109682,179418
OK,66,47,1030,66,2014-10-01T08:50:00,0,28110025,179418
OK,85,36,1030,85,2014-10-01T09:00:00,9,28110897,179418
OK,91,34,1030,91,2014-10-01T09:05:00,7,28111346,179418
OK,99,31,1030,99,2014-10-01T09:10:00,8,28111775,179418
OK,77,40,1030,77,2014-10-01T09:15:00,11,28112224,179418
OK,77,40,1030,77,2014-10-01T09:20:00,9,28112565,179418
OK,99,31,1030,99,2014-10-01T09:30:00,8,28113438,179418
OK,84,37,1030,84,2014-10-01T09:35:00,10,28113887,179418
OK,82,38,1030,82,2014-10-01T09:40:00,5,28114319,179418
OK,54,58,1030,54,2014-10-01T09:45:00,0,28114768,179418
OK,94,33,1030,94,2014-10-01T09:50:00,10,28115122,179418
OK,97,32,1030,97,2014-10-01T10:00:00,8,28115983,179418
OK,111,28,1030,111,2014-10-01T10:05:00,12,28116432,179418
OK,104,30,1030,104,2014-10-01T10:10:00,12,28116840,179418
OK,113,27,1030,113,2014-10-01T10:15:00,7,28117289,179418
OK,112,28,1030,112,2014-10-01T10:20:00,9,28117714,179418
OK,101,31,1030,101,2014-10-01T10:25:00,5,28118163,179418
OK,60,52,1030,60,2014-10-01T10:30:00,7,28118608,179418
OK,66,47,1030,66,2014-10-01T10:35:00,8,28119055,179418
OK,66,47,1030,66,2014-10-01T10:40:00,6,28119499,179418
OK,95,33,1030,95,2014-10-01T10:45:00,8,28119947,179418
OK,55,57,1030,55,2014-10-01T10:50:00,11,28120395,179418
OK,77,40,1030,77,2014-10-01T10:55:00,9,28120844,179418
OK,97,32,1030,97,2014-10-01T11:00:00,8,28121227,179418
OK,74,42,1030,74,2014-10-01T11:05:00,8,28121676,179418
OK,89,35,1030,89,2014-10-01T11:10:00,11,28122114,179418
OK,105,29,1030,105,2014-10-01T11:15:00,12,28122563,179418
OK,105,29,1030,105,2014-10-01T11:20:00,11,28123004,179418
OK,99,31,1030,99,2014-10-01T11:25:00,8,28123453,179418
OK,88,35,1030,88,2014-10-01T11:30:00,10,28123885,179418
OK,88,35,1030,88,2014-10-01T11:35:00,7,28124334,179418
OK,111,28,1030,111,2014-10-01T11:40:00,6,28124736,179418
OK,81,38,1030,81,2014-10-01T11:45:00,9,28125185,179418
OK,96,32,1030,96,2014-10-01T11:50:00,16,28125614,179418
OK,103,30,1030,103,2014-10-01T11:55:00,9,28126063,179418
OK,115,27,1030,115,2014-10-01T12:00:00,8,28126415,179418
OK,105,29,1030,105,2014-10-01T12:10:00,18,28127313,179418
OK,110,28,1030,110,2014-10-01T12:15:00,21,28127762,179418
OK,107,29,1030,107,2014-10-01T12:20:00,22,28128190,179418
OK,107,29,1030,107,2014-10-01T12:25:00,15,28128639,179418
OK,108,29,1030,108,2014-10-01T12:30:00,15,28129074,179418
OK,107,29,1030,107,2014-10-01T12:35:00,14,28129523,179418
OK,104,30,1030,104,2014-10-01T12:40:00,13,28129957,179418
OK,99,31,1030,99,2014-10-01T12:45:00,11,28130406,179418
OK,84,37,1030,84,2014-10-01T12:50:00,14,28130834,179418
OK,79,39,1030,79,2014-10-01T12:55:00,12,28131283,179418
OK,96,32,1030,96,2014-10-01T13:00:00,10,28131720,179418
OK,102,30,1030,102,2014-10-01T13:05:00,12,28132169,179418
OK,107,29,1030,107,2014-10-01T13:10:00,10,28132607,179418
OK,106,29,1030,106,2014-10-01T13:15:00,13,28133054,179418
OK,112,28,1030,112,2014-10-01T13:20:00,18,28133492,179418
OK,144,21,1030,144,2014-10-01T13:25:00,16,28133941,179418
OK,160,19,1030,160,2014-10-01T13:30:00,18,28134380,179418
OK,170,18,1030,170,2014-10-01T13:35:00,16,28134829,179418
OK,174,18,1030,174,2014-10-01T13:40:00,14,28135248,179418
OK,161,19,1030,161,2014-10-01T13:45:00,14,28135697,179418
OK,135,23,1030,135,2014-10-01T13:50:00,16,28136134,179418
OK,160,19,1030,160,2014-10-01T13:55:00,18,28136583,179418
OK,165,19,1030,165,2014-10-01T14:00:00,14,28137023,179418
OK,127,24,1030,127,2014-10-01T14:05:00,6,28137472,179418
OK,120,26,1030,120,2014-10-01T14:10:00,16,28137906,179418
OK,106,29,1030,106,2014-10-01T14:15:00,12,28138355,179418
OK,114,27,1030,114,2014-10-01T14:20:00,8,28138783,179418
OK,128,24,1030,128,2014-10-01T14:25:00,13,28139232,179418
OK,120,26,1030,120,2014-10-01T14:30:00,17,28139643,179418
OK,115,27,1030,115,2014-10-01T14:35:00,15,28140092,179418
OK,105,29,1030,105,2014-10-01T14:40:00,9,28140534,179418
OK,73,43,1030,73,2014-10-01T14:45:00,7,28140983,179418
OK,106,29,1030,106,2014-10-01T14:50:00,11,28141409,179418
OK,107,29,1030,107,2014-10-01T14:55:00,12,28141858,179418
OK,107,29,1030,107,2014-10-01T15:00:00,10,28142286,179418
OK,103,30,1030,103,2014-10-01T15:05:00,7,28142735,179418
OK,109,28,1030,109,2014-10-01T15:10:00,7,28143162,179418
OK,107,29,1030,107,2014-10-01T15:15:00,8,28143611,179418
OK,101,31,1030,101,2014-10-01T15:20:00,12,28144059,179418
OK,102,30,1030,102,2014-10-01T15:25:00,10,28144508,179418
OK,101,31,1030,101,2014-10-01T15:30:00,10,28144929,179418
OK,101,31,1030,101,2014-10-01T15:35:00,10,28145343,179418
OK,105,29,1030,105,2014-10-01T15:40:00,3,28145792,179418
OK,105,29,1030,105,2014-10-01T15:45:00,6,28146241,179418
OK,107,29,1030,107,2014-10-01T15:50:00,11,28146690,179418
OK,109,28,1030,109,2014-10-01T15:55:00,6,28147098,179418
OK,108,29,1030,108,2014-10-01T16:00:00,2,28147542,179418
OK,112,28,1030,112,2014-10-01T16:05:00,3,28147991,179418
OK,112,28,1030,112,2014-10-01T16:10:00,3,28148392,179418
OK,98,32,1030,98,2014-10-01T16:20:00,7,28149280,179418
OK,92,34,1030,92,2014-10-01T16:25:00,3,28149729,179418
OK,53,59,1030,53,2014-10-01T16:30:00,2,28150155,179418
OK,105,29,1030,105,2014-10-01T16:35:00,3,28150604,179418
OK,105,29,1030,105,2014-10-01T16:40:00,3,28151022,179418
OK,96,32,1030,96,2014-10-01T16:45:00,3,28151471,179418
OK,100,31,1030,100,2014-10-01T16:50:00,4,28151920,179418
OK,95,33,1030,95,2014-10-01T17:00:00,9,28152369,179418
OK,98,32,1030,98,2014-10-01T17:05:00,5,28152815,179418
OK,55,57,1030,55,2014-10-01T17:10:00,5,28153262,179418
OK,97,32,1030,97,2014-10-01T17:15:00,10,28153711,179418
OK,97,32,1030,97,2014-10-01T17:20:00,11,28154121,179418
OK,98,32,1030,98,2014-10-01T17:25:00,5,28154570,179418
OK,101,31,1030,101,2014-10-01T17:30:00,6,28155012,179418
OK,112,28,1030,112,2014-10-01T17:35:00,9,28155460,179418
OK,106,29,1030,106,2014-10-01T17:40:00,9,28155878,179418
OK,105,29,1030,105,2014-10-01T17:45:00,5,28156327,179418
OK,100,31,1030,100,2014-10-01T17:50:00,4,28156775,179418
OK,102,30,1030,102,2014-10-01T17:55:00,7,28157214,179418
OK,94,33,1030,94,2014-10-01T18:00:00,6,28157644,179418
OK,64,49,1030,64,2014-10-01T18:05:00,2,28158092,179418
OK,89,35,1030,89,2014-10-01T18:10:00,3,28158536,179418
OK,98,32,1030,98,2014-10-01T18:15:00,6,28158982,179418
OK,98,32,1030,98,2014-10-01T18:20:00,5,28159428,179418
OK,64,49,1030,64,2014-10-01T18:25:00,2,28159763,179418
OK,36,87,1030,36,2014-10-01T18:35:00,1,28160661,179418
OK,36,87,1030,36,2014-10-01T18:40:00,0,28161099,179418
OK,109,28,1030,109,2014-10-01T18:45:00,5,28161548,179418
OK,76,41,1030,76,2014-10-01T18:50:00,6,28161965,179418
OK,102,30,1030,102,2014-10-01T18:55:00,7,28162414,179418
OK,105,29,1030,105,2014-10-01T19:00:00,2,28162808,179418
OK,104,30,1030,104,2014-10-01T19:05:00,1,28163247,179418
OK,91,34,1030,91,2014-10-01T19:10:00,3,28163695,179418
OK,106,29,1030,106,2014-10-01T19:15:00,7,28164144,179418
OK,105,29,1030,105,2014-10-01T19:20:00,6,28164575,179418
OK,103,30,1030,103,2014-10-01T19:25:00,5,28165024,179418
OK,105,29,1030,105,2014-10-01T19:30:00,5,28165449,179418
OK,105,29,1030,105,2014-10-01T19:35:00,3,28165897,179418
OK,103,30,1030,103,2014-10-01T19:40:00,4,28166338,179418
OK,105,29,1030,105,2014-10-01T19:45:00,5,28166700,179418
OK,109,28,1030,109,2014-10-01T19:50:00,7,28167149,179418
OK,102,30,1030,102,2014-10-01T19:55:00,4,28167578,179418
OK,107,29,1030,107,2014-10-01T20:00:00,2,28168011,179418
OK,103,30,1030,103,2014-10-01T20:05:00,4,28168460,179418
OK,105,29,1030,105,2014-10-01T20:10:00,4,28168905,179418
OK,112,28,1030,112,2014-10-01T20:15:00,1,28169354,179418
OK,118,26,1030,118,2014-10-01T20:20:00,1,28169802,179418
OK,118,26,1030,118,2014-10-01T20:25:00,0,28170228,179418
OK,106,29,1030,106,2014-10-01T20:30:00,1,28170673,179418
OK,105,29,1030,105,2014-10-01T20:35:00,4,28171121,179418
OK,105,29,1030,105,2014-10-01T20:40:00,4,28171558,179418
OK,65,48,1030,65,2014-10-01T20:45:00,1,28172004,179418
OK,80,39,1030,80,2014-10-01T20:50:00,3,28172452,179418
OK,75,41,1030,75,2014-10-01T20:55:00,2,28172898,179418
OK,107,29,1030,107,2014-10-01T21:00:00,1,28173344,179418
OK,44,71,1030,44,2014-10-01T21:05:00,1,28173793,179418
OK,71,44,1030,71,2014-10-01T21:10:00,2,28174234,179418
OK,82,38,1030,82,2014-10-01T21:15:00,2,28174683,179418
OK,57,55,1030,57,2014-10-01T21:20:00,1,28175109,179418
OK,57,55,1030,57,2014-10-01T21:25:00,0,28175505,179418
OK,57,55,1030,57,2014-10-01T21:30:00,0,28175954,179418
OK,96,32,1030,96,2014-10-01T21:35:00,2,28176403,179418
OK,96,32,1030,96,2014-10-01T21:40:00,0,28176852,179418
OK,75,41,1030,75,2014-10-01T21:45:00,1,28177208,179418
OK,75,41,1030,75,2014-10-01T21:50:00,0,28177648,179418
OK,75,41,1030,75,2014-10-01T21:55:00,0,28178094,179418
OK,75,41,1030,75,2014-10-01T22:00:00,0,28178543,179418
OK,75,41,1030,75,2014-10-01T22:05:00,0,28178990,179418
OK,75,41,1030,75,2014-10-01T22:10:00,0,28179424,179418
OK,64,49,1030,64,2014-10-01T22:15:00,1,28179867,179418
OK,64,49,1030,64,2014-10-01T22:20:00,1,28180314,179418
OK,64,49,1030,64,2014-10-01T22:25:00,0,28180712,179418
OK,64,49,1030,64,2014-10-01T22:30:00,0,28181161,179418
OK,64,49,1030,64,2014-10-01T22:35:00,0,28181585,179418
OK,64,49,1030,64,2014-10-01T22:40:00,0,28182033,179418
OK,64,49,1030,64,2014-10-01T22:45:00,0,28182480,179418
OK,56,56,1030,56,2014-10-01T22:50:00,1,28182929,179418
OK,56,56,1030,56,2014-10-01T22:55:00,0,28183346,179418
OK,56,56,1030,56,2014-10-01T23:00:00,0,28183779,179418
OK,56,56,1030,56,2014-10-01T23:05:00,0,28184224,179418
OK,56,56,1030,56,2014-10-01T23:10:00,0,28184673,179418
OK,110,28,1030,110,2014-10-01T23:15:00,1,28185108,179418
OK,99,31,1030,99,2014-10-01T23:20:00,2,28185556,179418
OK,88,35,1030,88,2014-10-01T23:25:00,0,28185987,179418
OK,88,35,1030,88,2014-10-01T23:30:00,0,28186379,179418
OK,92,34,1030,92,2014-10-01T23:40:00,0,28187226,179418
OK,47,66,1030,47,2014-10-01T23:55:00,0,28188558,179418
OK,47,66,1030,47,2014-10-02T00:05:00,0,28189443,179418
OK,47,66,1030,47,2014-10-02T00:10:00,0,28189865,179418
OK,47,66,1030,47,2014-10-02T00:15:00,0,28190314,179418
OK,47,66,1030,47,2014-10-02T00:20:00,0,28190667,179418
OK,47,66,1030,47,2014-10-02T00:30:00,0,28191565,179418
OK,46,68,1030,46,2014-10-02T00:35:00,0,28191871,179418
OK,46,68,1030,46,2014-10-02T00:45:00,0,28192753,179418
OK,46,68,1030,46,2014-10-02T00:50:00,0,28193197,179418
OK,46,68,1030,46,2014-10-02T00:55:00,0,28193564,179418
OK,46,68,1030,46,2014-10-02T01:05:00,0,28194462,179418
OK,46,68,1030,46,2014-10-02T01:10:00,0,28194911,179418
OK,46,68,1030,46,2014-10-02T01:15:00,0,28195147,179418
OK,46,68,1030,46,2014-10-02T01:25:00,0,28196045,179418
OK,46,68,1030,46,2014-10-02T01:30:00,0,28196329,179418
OK,46,68,1030,46,2014-10-02T01:35:00,0,28196778,179418
OK,46,68,1030,46,2014-10-02T01:40:00,0,28197201,179418
OK,46,68,1030,46,2014-10-02T01:45:00,0,28197650,179418
OK,46,68,1030,46,2014-10-02T01:50:00,0,28198098,179418
OK,95,33,1030,95,2014-10-02T01:55:00,0,28198546,179418
OK,95,33,1030,95,2014-10-02T02:00:00,0,28198995,179418
OK,95,33,1030,95,2014-10-02T02:05:00,0,28199367,179418
OK,95,33,1030,95,2014-10-02T02:10:00,0,28199809,179418
OK,95,33,1030,95,2014-10-02T02:15:00,0,28200251,179418
OK,95,33,1030,95,2014-10-02T02:20:00,0,28200694,179418
OK,95,33,1030,95,2014-10-02T02:25:00,0,28201143,179418
OK,51,61,1030,51,2014-10-02T02:30:00,1,28201574,179418
OK,51,61,1030,51,2014-10-02T02:45:00,0,28202472,179418
OK,85,36,1030,85,2014-10-02T02:50:00,2,28202914,179418
OK,119,26,1030,119,2014-10-02T02:55:00,0,28203362,179418
OK,119,26,1030,119,2014-10-02T03:00:00,0,28203797,179418
OK,119,26,1030,119,2014-10-02T03:10:00,0,28204246,179418
OK,55,57,1030,55,2014-10-02T03:25:00,0,28204695,179418
OK,55,57,1030,55,2014-10-02T03:30:00,0,28205144,179418
OK,55,57,1030,55,2014-10-02T03:35:00,0,28205572,179418
OK,55,57,1030,55,2014-10-02T03:40:00,0,28206019,179418
OK,61,51,1030,61,2014-10-02T03:45:00,1,28206402,179418
OK,61,51,1030,61,2014-10-02T03:55:00,0,28207300,179418
OK,61,51,1030,61,2014-10-02T04:00:00,2,28207719,179418
OK,34,92,1030,34,2014-10-02T04:05:00,0,28208168,179418
OK,56,56,1030,56,2014-10-02T04:10:00,1,28208595,179418
OK,56,56,1030,56,2014-10-02T04:15:00,0,28209044,179418
OK,56,56,1030,56,2014-10-02T04:20:00,0,28209482,179418
OK,56,56,1030,56,2014-10-02T04:25:00,0,28209931,179418
OK,77,40,1030,77,2014-10-02T04:30:00,9,28210354,179418
OK,63,49,1030,63,2014-10-02T04:35:00,5,28210803,179418
OK,63,49,1030,63,2014-10-02T04:40:00,8,28211228,179418
OK,57,55,1030,57,2014-10-02T04:45:00,3,28211672,179418
OK,57,55,1030,57,2014-10-02T04:50:00,0,28212050,179418
OK,55,57,1030,55,2014-10-02T05:00:00,0,28212928,179418
OK,56,56,1030,56,2014-10-02T05:05:00,16,28213377,179418
OK,74,42,1030,74,2014-10-02T05:10:00,2,28213815,179418
OK,58,54,1030,58,2014-10-02T05:15:00,7,28214264,179418
OK,62,50,1030,62,2014-10-02T05:20:00,2,28214677,179418
OK,61,51,1030,61,2014-10-02T05:25:00,13,28215126,179418
OK,79,39,1030,79,2014-10-02T05:30:00,1,28215542,179418
OK,79,39,1030,79,2014-10-02T05:35:00,0,28215991,179418
OK,60,52,1030,60,2014-10-02T05:40:00,21,28216330,179418
OK,49,64,1030,49,2014-10-02T05:45:00,5,28216770,179418
OK,46,68,1030,46,2014-10-02T05:50:00,0,28217217,179418
OK,102,30,1030,102,2014-10-02T05:55:00,19,28217666,179418
OK,94,33,1030,94,2014-10-02T06:00:00,11,28218105,179418
OK,101,31,1030,101,2014-10-02T06:05:00,6,28218554,179418
OK,90,34,1030,90,2014-10-02T06:10:00,2,28218974,179418
OK,80,39,1030,80,2014-10-02T06:15:00,22,28219423,179418
OK,82,38,1030,82,2014-10-02T06:20:00,19,28219796,179418
OK,77,40,1030,77,2014-10-02T06:30:00,18,28220679,179418
OK,74,42,1030,74,2014-10-02T06:35:00,17,28221128,179418
OK,77,40,1030,77,2014-10-02T06:40:00,13,28221509,179418
OK,86,36,1030,86,2014-10-02T06:45:00,15,28221795,179418
OK,84,37,1030,84,2014-10-02T07:00:00,10,28222389,179418
OK,84,37,1030,84,2014-10-02T07:10:00,12,28223269,179418
OK,88,35,1030,88,2014-10-02T07:15:00,5,28223704,179418
OK,87,36,1030,87,2014-10-02T07:20:00,0,28224152,179418
OK,47,66,1030,47,2014-10-02T07:25:00,6,28224507,179418
OK,51,61,1030,51,2014-10-02T07:35:00,6,28225405,179418
OK,57,55,1030,57,2014-10-02T07:40:00,1,28225727,179418
OK,52,60,1030,52,2014-10-02T07:50:00,11,28226617,179418
OK,52,60,1030,52,2014-10-02T07:55:00,7,28227066,179418
OK,71,44,1030,71,2014-10-02T08:00:00,0,28227481,179418
OK,47,66,1030,47,2014-10-02T08:05:00,13,28227930,179418
OK,47,66,1030,47,2014-10-02T08:10:00,7,28228289,179418
OK,58,54,1030,58,2014-10-02T08:20:00,0,28229148,179418
OK,53,59,1030,53,2014-10-02T08:25:00,4,28229597,179418
OK,56,56,1030,56,2014-10-02T08:30:00,3,28229947,179418
OK,70,44,1030,70,2014-10-02T08:40:00,1,28230762,179418
OK,70,44,1030,70,2014-10-02T08:45:00,0,28231210,179418
OK,60,52,1030,60,2014-10-02T08:50:00,9,28231634,179418
OK,101,31,1030,101,2014-10-02T08:55:00,2,28232083,179418
OK,47,66,1030,47,2014-10-02T09:00:00,6,28232425,179418
OK,52,60,1030,52,2014-10-02T09:10:00,0,28232874,179418
OK,79,39,1030,79,2014-10-02T09:15:00,10,28233323,179418
OK,79,39,1030,79,2014-10-02T09:20:00,6,28233747,179418
OK,81,38,1030,81,2014-10-02T09:25:00,7,28234196,179418
OK,80,39,1030,80,2014-10-02T09:30:00,3,28234529,179418
OK,83,37,1030,83,2014-10-02T09:40:00,0,28235405,179418
OK,55,57,1030,55,2014-10-02T09:45:00,10,28235854,179418
OK,88,35,1030,88,2014-10-02T09:50:00,3,28236297,179418
OK,50,62,1030,50,2014-10-02T09:55:00,10,28236744,179418
OK,46,68,1030,46,2014-10-02T10:00:00,4,28237147,179418
OK,46,68,1030,46,2014-10-02T10:05:00,0,28237594,179418
OK,57,55,1030,57,2014-10-02T10:10:00,6,28238043,179418
OK,54,58,1030,54,2014-10-02T10:15:00,6,28238490,179418
OK,56,56,1030,56,2014-10-02T10:20:00,14,28238931,179418
OK,65,48,1030,65,2014-10-02T10:25:00,8,28239380,179418
OK,70,44,1030,70,2014-10-02T10:30:00,2,28239810,179418
OK,60,52,1030,60,2014-10-02T10:35:00,12,28240259,179418
OK,58,54,1030,58,2014-10-02T10:40:00,10,28240703,179418
OK,69,45,1030,69,2014-10-02T10:45:00,10,28241152,179418
OK,71,44,1030,71,2014-10-02T10:50:00,6,28241584,179418
OK,63,49,1030,63,2014-10-02T10:55:00,9,28242032,179418
OK,74,42,1030,74,2014-10-02T11:00:00,1,28242428,179418
OK,74,42,1030,74,2014-10-02T11:05:00,0,28242877,179418
OK,68,46,1030,68,2014-10-02T11:10:00,12,28243326,179418
OK,59,53,1030,59,2014-10-02T11:15:00,10,28243651,179418
OK,56,56,1030,56,2014-10-02T11:20:00,7,28244089,179418
OK,55,57,1030,55,2014-10-02T11:25:00,2,28244518,179418
OK,55,57,1030,55,2014-10-02T11:30:00,0,28244967,179418
OK,60,52,1030,60,2014-10-02T11:35:00,10,28245416,179418
OK,59,53,1030,59,2014-10-02T11:40:00,5,28245822,179418
OK,73,43,1030,73,2014-10-02T11:45:00,0,28246271,179418
OK,53,59,1030,53,2014-10-02T11:50:00,13,28246708,179418
OK,53,59,1030,53,2014-10-02T11:55:00,9,28247157,179418
OK,58,54,1030,58,2014-10-02T12:00:00,4,28247603,179418
OK,79,39,1030,79,2014-10-02T12:05:00,0,28248033,179418
OK,79,39,1030,79,2014-10-02T12:10:00,0,28248482,179418
OK,54,58,1030,54,2014-10-02T12:15:00,11,28248929,179418
OK,52,60,1030,52,2014-10-02T12:20:00,4,28249357,179418
OK,52,60,1030,52,2014-10-02T12:25:00,15,28249801,179418
OK,50,62,1030,50,2014-10-02T12:30:00,6,28250220,179418
OK,87,36,1030,87,2014-10-02T12:35:00,13,28250618,179418
OK,83,37,1030,83,2014-10-02T13:20:00,28,28251943,179418
OK,120,26,1030,120,2014-10-02T13:30:00,13,28252527,179418
OK,141,22,1030,141,2014-10-02T13:35:00,5,28252969,179418
OK,150,20,1030,150,2014-10-02T13:40:00,0,28253386,179418
OK,150,20,1030,150,2014-10-02T13:50:00,15,28254240,179418
OK,144,21,1030,144,2014-10-02T13:55:00,16,28254561,179418
OK,122,25,1030,122,2014-10-02T14:10:00,16,28255138,179418
OK,88,35,1030,88,2014-10-02T14:15:00,20,28255587,179418
OK,106,29,1030,106,2014-10-02T14:20:00,0,28256015,179418
OK,92,34,1030,92,2014-10-02T14:25:00,5,28256464,179418
OK,87,36,1030,87,2014-10-02T14:30:00,13,28256892,179418
OK,82,38,1030,82,2014-10-02T14:35:00,18,28257341,179418
OK,84,37,1030,84,2014-10-02T14:40:00,13,28257782,179418
OK,58,54,1030,58,2014-10-02T14:45:00,16,28258230,179418
OK,51,61,1030,51,2014-10-02T14:50:00,13,28258663,179418
OK,56,56,1030,56,2014-10-02T14:55:00,6,28259109,179418
OK,58,54,1030,58,2014-10-02T15:00:00,8,28259558,179418
OK,59,53,1030,59,2014-10-02T15:05:00,10,28260005,179418
OK,53,59,1030,53,2014-10-02T15:10:00,11,28260438,179418
OK,52,60,1030,52,2014-10-02T15:15:00,10,28260887,179418
OK,50,62,1030,50,2014-10-02T15:20:00,3,28261327,179418
OK,54,58,1030,54,2014-10-02T15:25:00,12,28261709,179418
OK,52,60,1030,52,2014-10-02T15:40:00,6,28263032,179418
OK,85,36,1030,85,2014-10-02T15:45:00,7,28263470,179418
OK,44,71,1030,44,2014-10-02T15:50:00,1,28263911,179418
OK,44,71,1030,44,2014-10-02T15:55:00,0,28264313,179418
OK,57,55,1030,57,2014-10-02T16:00:00,9,28264762,179418
OK,67,46,1030,67,2014-10-02T16:05:00,3,28265200,179418
OK,50,62,1030,50,2014-10-02T16:10:00,8,28265640,179418
OK,48,65,1030,48,2014-10-02T16:15:00,3,28266036,179418
OK,50,62,1030,50,2014-10-02T16:20:00,6,28266485,179418
OK,61,51,1030,61,2014-10-02T16:25:00,4,28266934,179418
OK,127,24,1030,127,2014-10-02T16:30:00,2,28267257,179418
OK,63,49,1030,63,2014-10-02T16:40:00,8,28268155,179418
OK,50,62,1030,50,2014-10-02T16:45:00,4,28268597,179418
OK,57,55,1030,57,2014-10-02T16:50:00,0,28269046,179418
OK,61,51,1030,61,2014-10-02T16:55:00,9,28269495,179418